Content
SEND FEEDBACK

Daily
Averages
Monthly
Summary
Canada

VANCOUVER, BRITISH COLUMBIA


Home > North America > Canada > British Columbia
Elevation: 2 meters     Latitude: 49 11N     Longitude: 123 10W

WEATHER
 
SELECT A DAY
Number of Records: 249,213;   Date Range: 5/15/97 - 4/23/14
 
SHARE

PRINT THIS DATA

[ ← Previous Day ]
WEATHER ALMANAC - 3 MARCH, 2013
[ Next Day → ]
[ °F ]   °C
Weather ElementAverageHighLow
Temperature4.1 °C8 °C (11:55 am)0 °C (6:15 am)
Dewpoint1.1 °C3 °C (12:35 pm)0 °C (1:15 am)
Humidity81.8 %100 % (6:15 am)57 % (11:55 am)
Barometer1024 hPa1026.1 hPa (10:15 pm)1021.3 hPa (12:35 am)
Wind Speed5 km/h18.5 km/h (3:15 pm)
Weather ElementAverage
Visibility16.1 km
Wind DirectionSSE (141.4 °)

Weather ElementTotal
Precipitation---
Heating Degree Days14.3 (Base 18.3)
Averaged from 66 records on 3 March, 2013
WEATHER CONDITIONS BREAKOUT
WIND DIRECTION BREAKOUT
WEATHER BY HOUR - 3 MARCH, 2013
[ °F ]   °C
Local TimeTemperatureDewpointHumidityBarometerVisibilityWind DirectionWind SpeedGust SpeedPrecipitationEventsConditions
12:35 AM3 °C1 °C87 %1021.3 hPa16.1 kmSouth (190°)9.3 km/hClear
12:55 AM3 °C1 °C87 %1021.3 hPa16.1 kmSW (220°)11.1 km/hClear
1:15 AM5 °C0 °C70 %1021.7 hPa16.1 kmWSW (250°)7.4 km/hClear
1:35 AM5 °C0 °C70 %1021.7 hPa16.1 kmWest (260°)7.4 km/hClear
1:55 AM5 °C0 °C70 %1022 hPa16.1 kmWSW (250°)5.6 km/hClear
2:15 AM4 °C0 °C75 %1022 hPa16.1 kmSW (220°)5.6 km/hClear
2:35 AM3 °C0 °C81 %1022 hPa16.1 kmSSW (210°)5.6 km/hClear
3:15 AM2 °C0 °C87 %1022.4 hPa16.1 kmCalmPartly Cloudy
3:35 AM2 °C0 °C87 %1022.4 hPa16.1 kmCalmClear
3:55 AM1 °C0 °C93 %1022.7 hPa16.1 kmCalmClear
4:35 AM1 °C0 °C93 %1022.7 hPa16.1 kmCalmPartly Cloudy
5:15 AM1 °C0 °C93 %1022.7 hPa16.1 kmCalmPartly Cloudy
5:35 AM1 °C0 °C93 %1023 hPa16.1 kmCalmClear
5:55 AM2 °C1 °C93 %1023.4 hPa16.1 kmCalmClear
6:15 AM0 °C0 °C100 %1023.4 hPa16.1 kmSSW (200°)7.4 km/hPartly Cloudy
6:35 AM1 °C0 °C93 %1023.4 hPa16.1 kmSouth (180°)7.4 km/hScattered Clouds
6:55 AM2 °C1 °C93 %1023.4 hPa16.1 kmNorthMostly Cloudy
7:15 AM2 °C1 °C93 %1023.7 hPa16.1 kmCalmMostly Cloudy
7:35 AM2 °C0 °C87 %1023.7 hPa16.1 kmCalmMostly Cloudy
7:55 AM4 °C0 °C75 %1023.7 hPa16.1 kmCalmPartly Cloudy
8:15 AM3 °C2 °C93 %1023.7 hPa16.1 kmSSW (200°)9.3 km/hClear
8:35 AM4 °C0 °C75 %1023.7 hPa16.1 kmSW (220°)11.1 km/hClear
8:55 AM5 °C1 °C76 %1023.7 hPa16.1 kmSSW (200°)5.6 km/hPartly Cloudy
9:15 AM5 °C0 °C70 %1024 hPa16.1 kmCalmMostly Cloudy
9:35 AM5 °C0 °C70 %1024 hPa16.1 kmCalmOvercast
9:55 AM6 °C0 °C66 %1024 hPa16.1 kmNW (310°)5.6 km/hOvercast
10:15 AM7 °C0 °C61 %1024 hPa16.1 kmNW (310°)11.1 km/hMostly Cloudy
10:35 AM7 °C0 °C61 %1024 hPa16.1 kmWest (260°)11.1 km/hMostly Cloudy
10:55 AM6 °C0 °C66 %1024 hPa16.1 kmNW (320°)11.1 km/hMostly Cloudy
11:15 AM6 °C1 °C70 %1024.4 hPa16.1 kmCalmMostly Cloudy
11:35 AM7 °C0 °C61 %1024.4 hPa16.1 kmNorth (360°)5.6 km/hMostly Cloudy
11:55 AM8 °C0 °C57 %1024.4 hPa16.1 kmNNW (330°)7.4 km/hMostly Cloudy
12:15 PM7 °C0 °C61 %1024.4 hPa16.1 kmNNW (340°)9.3 km/hScattered Clouds
12:35 PM7 °C3 °C76 %1024.4 hPa16.1 kmNNW (340°)9.3 km/hScattered Clouds
12:55 PM7 °C2 °C71 %1024.4 hPa16.1 kmNNW (340°)13 km/hPartly Cloudy
1:15 PM7 °C2 °C71 %1024.4 hPa16.1 kmNNW (340°)14.8 km/hPartly Cloudy
1:35 PM7 °C3 °C76 %1024.4 hPa16.1 kmNorth (350°)13 km/hScattered Clouds
1:55 PM8 °C3 °C71 %1024.7 hPa16.1 kmNorth (350°)11.1 km/hMostly Cloudy
2:15 PM7 °C3 °C76 %1024.4 hPa16.1 kmNorth (350°)14.8 km/hScattered Clouds
2:35 PM7 °C2 °C71 %1024.7 hPa16.1 kmNorth (350°)13 km/hClear
2:55 PM8 °C3 °C71 %1024.7 hPa16.1 kmNorth (350°)16.7 km/hPartly Cloudy
3:15 PM7 °C2 °C71 %1024.7 hPa16.1 kmNorth (350°)18.5 km/hPartly Cloudy
3:35 PM7 °C2 °C71 %1024.7 hPa16.1 kmNorth (360°)14.8 km/hScattered Clouds
3:55 PM7 °C2 °C71 %1024.7 hPa16.1 kmNNW (340°)9.3 km/hScattered Clouds
4:15 PM7 °C2 °C71 %1024.7 hPa16.1 kmNNW (340°)5.6 km/hPartly Cloudy
4:35 PM7 °C2 °C71 %1024.7 hPa16.1 kmNNW (340°)5.6 km/hClear
4:55 PM6 °C2 °C76 %1024.7 hPa16.1 kmCalmClear
5:15 PM6 °C2 °C76 %1024.7 hPa16.1 kmCalmClear
5:35 PM5 °C2 °C81 %1025.1 hPa16.1 kmCalmClear
5:55 PM4 °C2 °C87 %1025.1 hPa16.1 kmCalmClear
6:15 PM4 °C2 °C87 %1025.1 hPa16.1 kmCalmClear
6:35 PM3 °C2 °C93 %1025.4 hPa16.1 kmCalmClear
6:55 PM3 °C2 °C93 %1025.4 hPa16.1 kmNorthClear
7:15 PM3 °C2 °C93 %1025.4 hPa16.1 kmCalmClear
7:35 PM2 °C2 °C100 %1025.4 hPa16.1 kmCalmClear
7:55 PM2 °C2 °C100 %1025.4 hPa16.1 kmCalmClear
8:15 PM2 °C2 °C100 %1025.4 hPa16.1 kmCalmClear
8:35 PM2 °C1 °C93 %1025.4 hPa16.1 kmCalmClear
8:55 PM2 °C2 °C100 %1025.7 hPa16.1 kmNorthClear
9:15 PM2 °C1 °C93 %1025.7 hPa16.1 kmCalmClear
9:35 PM2 °C1 °C93 %1025.7 hPa16.1 kmCalmClear
10:15 PM1 °C0 °C93 %1026.1 hPa16.1 kmCalmClear
10:55 PM1 °C0 °C93 %1026.1 hPa16.1 kmCalmClear
11:15 PM1 °C1 °C100 %1025.7 hPa16.1 kmCalmClear
11:35 PM0 °C0 °C100 %1025.7 hPa16.1 kmCalmClear
11:55 PM0 °C0 °C100 %1025.7 hPa16.1 kmNorthClear
Hourly data recorded from CZBB, located 0 kilometers away from Vancouver, British Columbia







STORIES FROM OUR PARTNERS